This demonstration page uses our WeatherBlox Daily Observations layout. Learn more.

Left ArrowRight Arrow

Hourly Observations for January 7, 2020

Temp ( °F °C ) Dew Point ( °F °C ) Humidity (%) Winds ( mph kmh ) Pressure ( in mb ) Visibility ( mi km ) Precip ( " mm )
12:53 am 00:53 Mostly Cloudy 46 7.8 42 5.6 86 86 Calm 30.07 1018 10 16 0.00 0.00
1:53 am 01:53 Clear 46 7.8 42 5.6 86 86 SW 3 6 30.04 1017 10 16 0.00 0.00
2:53 am 02:53 Mostly Clear 47 8.3 42 5.6 83 83 W 3 6 30.04 1017 10 16 0.00 0.00
3:53 am 03:53 Clear 48 8.9 43 6.1 83 83 SW 5 7 30.02 1017 10 16 0.00 0.00
4:53 am 04:53 Cloudy 51 10.6 44 6.7 77 77 SW 9 15 30.00 1016 10 16 0.00 0.00
5:53 am 05:53 Cloudy with Light Rain 49 9.4 45 7.2 86 86 SW 9 15 29.99 1016 10 16 0.01 0.25
6:08 am 06:08 Cloudy 49 9.4 46 7.8 90 90 SW 7 11 30.01 1016 10 16 0.00 0.00
6:53 am 06:53 Cloudy 49 9.4 45 7.2 86 86 SW 8 13 30.00 1016 10 16 0.00 0.00
7:00 am 07:00 Cloudy 49 9.4 45 7.2 86 86 WSW 7 11 30.03 1017 10 16 0.00 0.00
7:11 am 07:11 Cloudy 49 9.4 45 7.2 86 86 SW 7 11 30.02 1017 10 16 0.00 0.00
7:36 am 07:36 Mostly Cloudy 48 8.9 45 7.2 89 89 SW 7 11 30.03 1017 10 16 0.00 0.00
7:53 am 07:53 Mostly Sunny 48 8.9 45 7.2 89 89 SSW 5 7 30.02 1017 10 16 0.00 0.00
8:53 am 08:53 Sunny 50 10 46 7.8 86 86 WSW 8 13 30.05 1018 10 16 0.00 0.00
9:53 am 09:53 Sunny 53 11.7 41 5 64 64 W 17 28 30.09 1019 10 16 0.00 0.00
10:53 am 10:53 Sunny 54 12.2 34 1.1 47 47 W 13 20 30.10 1019 10 16 0.00 0.00
11:53 am 11:53 Sunny 55 12.8 30 -1.1 38 38 WNW 15 24 30.11 1020 10 16 0.00 0.00
12:53 pm 12:53 Sunny 55 12.8 28 -2.2 35 35 W 15 24 30.11 1020 10 16 0.00 0.00
1:53 pm 13:53 Sunny 56 13.3 25 -3.9 30 30 W 13 20 30.10 1019 10 16 0.00 0.00
2:53 pm 14:53 Sunny 56 13.3 24 -4.4 29 29 W 15 24 30.11 1020 10 16 0.00 0.00
3:53 pm 15:53 Sunny 56 13.3 24 -4.4 29 29 WNW 17 28 30.12 1020 10 16 0.00 0.00
4:53 pm 16:53 Sunny 54 12.2 22 -5.6 29 29 WNW 18 30 30.15 1021 10 16 0.00 0.00
5:53 pm 17:53 Clear 51 10.6 25 -3.9 36 36 WNW 7 11 30.18 1022 10 16 0.00 0.00
6:53 pm 18:53 Clear 50 10 25 -3.9 38 38 W 10 17 30.22 1023 10 16 0.00 0.00
7:53 pm 19:53 Clear 49 9.4 25 -3.9 39 39 WNW 9 15 30.24 1024 10 16 0.00 0.00
8:53 pm 20:53 Clear 48 8.9 26 -3.3 42 42 W 8 13 30.26 1025 10 16 0.00 0.00
9:53 pm 21:53 Clear 46 7.8 26 -3.3 46 46 W 5 7 30.27 1025 10 16 0.00 0.00
10:53 pm 22:53 Clear 44 6.7 26 -3.3 49 49 Calm 30.29 1026 10 16 0.00 0.00
11:53 pm 23:53 Clear 43 6.1 26 -3.3 51 51 W 3 6 30.29 1026 10 16 0.00 0.00

Powered by AerisWeather